Ozark, AL

6:59 PM CDT on May 27, 2017 (GMT -0500)
Cairns Army Air Field

Weather History for KOZR - July, 2012

Change the Weather History Date:

Friday, July 20, 2012

  Actual Average Record
Temperature  
Mean Temperature 80 °F -  
Max Temperature 89 °F 88 °F 105 °F (2000)
Min Temperature 71 °F 69 °F 66 °F (2004)
Cooling Degree Days 14    
Growing Degree Days 30 (Base 50)    
Moisture  
Dew Point 70 °F    
Average Humidity 80    
Maximum Humidity 97    
Minimum Humidity 57    
Precipitation  
Precipitation 0.00 in - - ()
Sea Level Pressure  
Sea Level Pressure 30.04 in    
Wind  
Wind Speed 3 mph (South)    
Max Wind Speed 16 mph    
Max Gust Speed 23 mph    
Visibility 10 miles    
Events      
Averages and records for this station are not official NWS values.
T = Trace of Precipitation, MM = Missing Value Source: NWS Daily Summary

Daily Weather History Graph

Daily Weather History Graph

Search for Another Location

Airport or City:

Trip Planner

Search our weather history database for the weather conditions in past years. The results will help you decide how hot, cold, wet, or windy it might be!

Date:

Astronomy

Jul. 20, 2012 Rise Set
Actual Time 5:52 AM CDT 7:45 PM CDT
Civil Twilight 5:25 AM CDT 8:12 PM CDT
Nautical Twilight 4:52 AM CDT 8:45 PM CDT
Astronomical Twilight 4:17 AM CDT 9:20 PM CDT
Moon 7:19 AM CDT (7/20) 8:37 PM CDT (7/20)
Length of Visible Light 14h 47m
Length of Day
13h 53m
Waxing Crescent, 3% of the Moon is Illuminated
Jul 20
Waxing Crescent
Jul 26
First Quarter
Aug 1
Full
Aug 9
Last Quarter
Aug 17
New

Hourly Weather History & Observations

Time (CDT) Temp. Heat Index Dew Point Humidity Pressure Visibility Wind Dir Wind Speed Gust Speed Precip Events Conditions
12:55 AM 73.4 °F - 68.0 °F 83% 30.04 in 10.0 mi Calm Calm - N/A   Clear
1:55 AM 73.0 °F - 67.6 °F 83% 30.05 in 10.0 mi Calm Calm - N/A   Clear
2:55 AM 73.2 °F - 67.5 °F 82% 30.04 in 10.0 mi Calm Calm - N/A   Scattered Clouds
3:53 AM 73.4 °F - 68.0 °F 83% 30.04 in 10.0 mi Calm Calm - N/A   Mostly Cloudy
3:55 AM 72.9 °F - 67.5 °F 83% 30.04 in 10.0 mi Calm Calm - N/A   Mostly Cloudy
3:57 AM 73.4 °F - 68.0 °F 83% 30.04 in 10.0 mi Calm Calm - N/A   Mostly Cloudy
4:16 AM 73.4 °F - 68.0 °F 83% 30.04 in 10.0 mi Calm Calm - N/A   Overcast
4:55 AM 72.3 °F - 66.9 °F 83% 30.04 in 10.0 mi Calm Calm - N/A   Mostly Cloudy
5:04 AM 71.6 °F - 66.2 °F 83% 30.04 in 10.0 mi Calm Calm - N/A   Scattered Clouds
5:40 AM 71.6 °F - 66.2 °F 83% 30.05 in 10.0 mi Calm Calm - N/A   Partly Cloudy
5:50 AM 71.6 °F - 66.2 °F 83% 30.06 in 9.0 mi Calm Calm - N/A   Mostly Cloudy
5:55 AM 72.0 °F - 66.7 °F 84% 30.06 in 8.0 mi SW 3.5 mph - N/A   Mostly Cloudy
6:18 AM 71.6 °F - 66.2 °F 83% 30.06 in 8.0 mi Calm Calm - N/A   Overcast
6:55 AM 72.1 °F - 66.7 °F 83% 30.06 in 10.0 mi Calm Calm - N/A   Overcast
7:09 AM 71.6 °F - 66.2 °F 83% 30.06 in 9.0 mi Calm Calm - N/A   Overcast
7:28 AM 73.4 °F - 68.0 °F 83% 30.06 in 10.0 mi Calm Calm - N/A   Overcast
7:47 AM 73.4 °F - 68.0 °F 83% 30.07 in 10.0 mi Calm Calm - N/A   Overcast
7:55 AM 73.8 °F - 67.6 °F 81% 30.07 in 10.0 mi Calm Calm - N/A   Overcast
7:58 AM 73.4 °F - 68.0 °F 83% 30.07 in 10.0 mi Calm Calm - N/A   Overcast
8:12 AM 75.2 °F - 68.0 °F 78% 30.07 in 10.0 mi Calm Calm - N/A   Mostly Cloudy
8:50 AM 77.0 °F - 68.0 °F 74% 30.07 in 10.0 mi SSW 3.5 mph - N/A   Mostly Cloudy
8:51 AM 77.0 °F - 68.0 °F 74% 30.07 in 10.0 mi South 3.5 mph - N/A   Scattered Clouds
8:55 AM 76.8 °F - 67.8 °F 74% 30.07 in 10.0 mi South 6.9 mph - N/A   Scattered Clouds
9:55 AM 81.0 °F 83.2 °F 66.4 °F 61% 30.08 in 10.0 mi Variable 4.6 mph - N/A   Scattered Clouds
10:55 AM 82.9 °F 85.2 °F 66.2 °F 57% 30.08 in 10.0 mi SSW 10.4 mph - N/A   Clear
11:55 AM 84.9 °F 88.2 °F 68.0 °F 57% 30.06 in 10.0 mi SSW 10.4 mph - N/A   Partly Cloudy
12:55 PM 87.4 °F 95.3 °F 73.4 °F 63% 30.05 in 10.0 mi SSW 15.0 mph - N/A   Partly Cloudy
1:55 PM 88.2 °F 96.0 °F 73.4 °F 61% 30.03 in 10.0 mi SW 8.1 mph - N/A   Clear
2:55 PM 86.0 °F 94.2 °F 74.1 °F 68% 30.03 in 10.0 mi SSW 9.2 mph - N/A   Scattered Clouds
3:55 PM 85.6 °F 93.0 °F 73.8 °F 67% 30.02 in 10.0 mi South 15.0 mph 23.0 mph N/A   Clear
4:55 PM 82.6 °F 88.3 °F 73.0 °F 73% 30.01 in 10.0 mi South 16.1 mph - N/A   Clear
5:42 PM 82.4 °F 89.5 °F 75.2 °F 79% 30.01 in 10.0 mi South 13.8 mph - N/A   Mostly Cloudy
5:55 PM 81.1 °F 86.6 °F 73.9 °F 79% 30.01 in 10.0 mi South 10.4 mph - N/A   Mostly Cloudy
6:26 PM 80.6 °F 85.4 °F 73.4 °F 79% 30.02 in 10.0 mi South 8.1 mph - N/A   Scattered Clouds
6:55 PM 79.3 °F - 73.6 °F 82% 30.02 in 10.0 mi South 6.9 mph - N/A   Scattered Clouds
7:28 PM 78.8 °F - 73.4 °F 83% 30.02 in 10.0 mi SSW 5.8 mph - N/A   Mostly Cloudy
7:31 PM 78.8 °F - 73.4 °F 83% 30.02 in 10.0 mi South 6.9 mph - N/A   Scattered Clouds
7:55 PM 78.3 °F - 74.1 °F 87% 30.02 in 10.0 mi SSW 5.8 mph - N/A   Scattered Clouds
8:55 PM 77.5 °F - 74.3 °F 90% 30.02 in 10.0 mi SSW 5.8 mph - N/A   Scattered Clouds
9:55 PM 76.1 °F - 74.3 °F 94% 30.03 in 10.0 mi South 4.6 mph - N/A   Clear
10:54 PM 75.2 °F - 73.4 °F 94% 30.03 in 10.0 mi SSE 6.9 mph - N/A   Mostly Cloudy
10:55 PM 75.4 °F - 73.9 °F 95% 30.03 in 10.0 mi SSE 5.8 mph - N/A   Mostly Cloudy
11:00 PM 75.2 °F - 73.4 °F 94% 30.03 in 10.0 mi South 5.8 mph - N/A   Scattered Clouds
11:55 PM 75.0 °F - 74.1 °F 97% 30.04 in 10.0 mi Calm Calm - N/A   Partly Cloudy